�N����,����,�~����,�C��,���x,�C��,����,���ϕ���,�ő�u�ԕ���,�ő厞����,���˗�,�I�_���x,�n�����x,�ő啗���N��,DTYPE
"19/06/26","00:10",0.0,20.1,75.5,1011.4,301.0,1.0,1.4,265.4,0.00,15.7,22.5,"00:01:04",1
"19/06/26","00:20",0.0,20.2,77.0,1011.4,318.3,1.1,1.8,331.0,0.00,16.1,22.6,"00:16:08",1
"19/06/26","00:30",0.0,19.6,79.1,1011.4,288.5,0.7,1.2,315.0,0.00,15.9,22.4,"00:20:48",1
"19/06/26","00:40",0.0,19.4,79.8,1011.4,292.7,0.8,1.1,320.4,0.00,15.9,22.3,"00:36:24",1
"19/06/26","00:50",0.0,19.4,80.1,1011.4,287.2,0.8,1.3,316.5,0.00,15.9,22.2,"00:41:20",1
"19/06/26","01:00",0.0,19.3,80.2,1011.2,293.6,0.8,1.6,306.1,0.00,15.8,22.2,"00:53:44",1
"19/06/26","01:10",0.0,19.3,81.1,1011.4,276.7,0.8,1.2,306.6,0.00,16.0,21.9,"01:00:24",1
"19/06/26","01:20",0.0,19.3,80.9,1011.2,306.6,1.0,1.4,321.2,0.00,16.0,22.0,"01:17:52",1
"19/06/26","01:30",0.0,19.3,80.8,1011.4,288.7,1.0,1.7,316.7,0.00,16.0,21.9,"01:29:20",1
"19/06/26","01:40",0.0,19.3,81.4,1011.2,289.7,1.0,1.9,315.8,0.00,16.1,21.8,"01:30:48",1
"19/06/26","01:50",0.0,19.3,81.4,1011.4,286.0,0.8,1.3,307.8,0.00,16.1,21.8,"01:40:32",1
"19/06/26","02:00",0.0,19.3,81.6,1010.7,291.1,1.0,1.3,327.8,0.00,16.1,21.9,"01:57:44",1
"19/06/26","02:10",0.0,19.3,82.1,1010.9,300.6,1.0,1.2,325.5,0.00,16.2,21.9,"02:03:36",1
"19/06/26","02:20",0.0,19.0,82.4,1011.2,300.8,1.0,1.8,306.4,0.00,16.0,21.7,"02:17:12",1
"19/06/26","02:30",0.0,19.1,83.7,1010.9,333.0,1.1,1.6,337.3,0.00,16.3,21.7,"02:21:28",1
"19/06/26","02:40",0.0,18.7,84.2,1010.7,296.8,0.8,1.3,321.1,0.00,16.0,21.5,"02:30:56",1
"19/06/26","02:50",0.0,18.3,85.0,1010.9,289.0,0.7,1.1,313.3,0.00,15.8,21.6,"02:49:36",1
"19/06/26","03:00",0.0,18.4,86.5,1010.9,301.7,1.1,1.4,330.8,0.00,16.1,21.6,"02:57:12",1
"19/06/26","03:10",0.0,18.3,86.3,1010.7,306.5,1.1,1.3,319.4,0.00,16.0,21.7,"03:09:20",1
"19/06/26","03:20",0.0,18.2,87.3,1010.7,310.5,1.2,1.7,321.6,0.00,16.1,21.4,"03:15:28",1
"19/06/26","03:30",0.0,18.0,87.4,1010.9,288.3,1.0,1.7,325.0,0.00,15.9,21.3,"03:25:44",1
"19/06/26","03:40",0.0,18.1,87.5,1010.9,287.4,1.1,1.6,305.5,0.00,16.0,21.4,"03:35:44",1
"19/06/26","03:50",0.0,18.1,87.7,1010.7,305.4,1.0,1.4,318.3,0.00,16.1,21.2,"03:42:00",1
"19/06/26","04:00",0.0,18.0,88.2,1010.9,305.3,1.1,1.7,320.7,0.00,16.1,21.4,"03:54:56",1
"19/06/26","04:10",0.0,17.8,88.5,1010.9,286.3,1.0,1.2,305.5,0.00,15.9,21.2,"04:01:04",1
"19/06/26","04:20",0.0,17.9,88.4,1010.4,304.6,1.2,1.8,318.5,0.00,16.0,21.2,"04:16:56",1
"19/06/26","04:30",0.0,18.0,88.6,1010.7,311.9,1.2,1.9,321.1,0.00,16.1,21.0,"04:23:20",1
"19/06/26","04:40",0.0,17.7,88.3,1010.9,284.5,0.6,1.1,322.3,0.00,15.8,21.2,"04:30:08",1
"19/06/26","04:50",0.0,17.6,89.7,1010.7,297.6,1.2,1.4,301.4,0.00,15.9,20.9,"04:45:12",1
"19/06/26","05:00",0.0,17.5,89.4,1010.4,297.0,1.2,1.6,307.5,0.00,15.8,21.1,"04:53:28",1
"19/06/26","05:10",0.0,17.7,90.5,1010.9,317.2,1.5,1.9,319.4,0.00,16.2,20.9,"05:04:48",1
"19/06/26","05:20",0.0,17.6,90.5,1010.9,298.6,1.0,1.6,325.8,0.00,16.1,20.7,"05:10:08",1
"19/06/26","05:30",0.0,17.6,90.4,1010.7,289.2,1.3,2.0,307.0,0.00,16.1,20.8,"05:22:24",1
"19/06/26","05:40",0.0,17.8,90.5,1010.7,297.0,1.1,1.9,320.0,0.00,16.3,20.8,"05:33:36",1
"19/06/26","05:50",0.0,17.9,90.7,1010.9,300.3,0.8,1.2,315.0,0.00,16.4,20.8,"05:44:16",1
"19/06/26","06:00",0.0,18.1,90.7,1010.7,309.2,0.7,1.2,319.5,0.01,16.6,20.8,"05:58:16",1
"19/06/26","06:10",0.0,18.5,90.6,1011.2,336.0,1.2,1.7,334.9,0.01,17.0,20.8,"06:05:04",1
"19/06/26","06:20",0.0,18.9,90.0,1010.7,306.1,0.8,1.7,343.1,0.02,17.3,20.9,"06:10:16",1
"19/06/26","06:30",0.0,19.7,89.2,1010.7,312.0,0.8,1.4,335.5,0.03,17.9,20.9,"06:26:48",1
"19/06/26","06:40",0.0,20.4,88.1,1011.2,333.5,1.0,1.7,339.6,0.05,18.4,20.9,"06:33:20",1
"19/06/26","06:50",0.0,21.1,86.1,1010.9,327.9,0.7,1.4,331.6,0.06,18.7,21.0,"06:46:00",1
"19/06/26","07:00",0.0,22.2,83.1,1010.7,322.2,0.8,1.6,335.3,0.09,19.2,21.0,"06:52:32",1
"19/06/26","07:10",0.0,22.8,80.0,1010.7,284.8,0.3,0.9,210.4,0.11,19.2,21.2,"07:04:40",1
"19/06/26","07:20",0.0,23.4,75.7,1010.9,353.3,0.3,1.1,342.8,0.13,18.9,21.1,"07:18:16",1
"19/06/26","07:30",0.0,24.0,74.2,1010.2,22.5,0.2,1.2,351.4,0.16,19.2,21.2,"07:29:04",1
"19/06/26","07:40",0.0,23.9,72.8,1010.2,351.3,0.6,1.4,20.6,0.18,18.8,21.4,"07:34:00",1
"19/06/26","07:50",0.0,24.3,72.2,1010.0,41.3,0.6,1.3,40.2,0.21,19.0,21.8,"07:46:24",1
"19/06/26","08:00",0.0,24.4,71.2,1009.5,28.2,0.5,1.3,12.8,0.18,18.9,21.8,"07:55:28",1
"19/06/26","08:10",0.0,24.3,72.5,1009.7,17.0,0.7,1.7,3.8,0.15,19.1,21.6,"08:09:44",1
"19/06/26","08:20",0.0,25.2,71.6,1009.3,120.5,0.7,2.1,126.3,0.24,19.7,22.0,"08:13:12",1
"19/06/26","08:30",0.0,25.7,70.0,1009.5,91.6,0.6,2.0,124.6,0.27,19.9,22.0,"08:20:24",1
"19/06/26","08:40",0.0,25.4,70.5,1008.8,144.2,1.0,2.4,207.3,0.29,19.7,22.3,"08:36:56",1
"19/06/26","08:50",0.0,26.2,68.1,1009.0,137.2,0.7,2.0,173.7,0.36,19.9,22.4,"08:48:56",1
"19/06/26","09:00",0.0,26.5,67.3,1009.3,126.3,0.6,2.0,85.3,0.37,20.0,22.5,"08:50:40",1
"19/06/26","09:10",0.0,26.7,68.0,1009.7,104.0,1.1,2.7,145.8,0.36,20.3,22.7,"09:03:28",1
"19/06/26","09:20",0.0,26.3,67.1,1009.5,101.7,0.8,2.2,102.8,0.31,19.7,22.8,"09:12:32",1
"19/06/26","09:30",0.0,26.3,65.3,1009.7,174.5,1.0,2.1,195.9,0.33,19.3,23.1,"09:25:04",1
"19/06/26","09:40",0.0,26.9,66.1,1009.7,140.4,0.7,2.5,119.4,0.30,20.1,23.3,"09:32:48",1
"19/06/26","09:50",0.0,26.6,63.9,1009.5,137.2,1.1,2.9,119.5,0.37,19.2,23.4,"09:44:08",1
"19/06/26","10:00",0.0,26.8,65.1,1009.7,132.6,0.8,2.1,156.3,0.33,19.7,23.5,"09:59:04",1
"19/06/26","10:10",0.0,27.6,65.0,1009.5,133.3,0.8,1.7,60.6,0.41,20.5,23.6,"10:02:48",1
"19/06/26","10:20",0.0,28.1,63.3,1009.3,109.7,0.8,3.6,23.3,0.49,20.5,23.9,"10:11:36",1
"19/06/26","10:30",0.0,28.1,61.1,1009.7,142.5,1.6,3.7,131.7,0.54,19.9,24.2,"10:26:56",1
"19/06/26","10:40",0.0,27.8,59.8,1009.5,160.1,1.1,3.4,165.8,0.50,19.3,24.4,"10:32:48",1
"19/06/26","10:50",0.0,28.4,58.8,1010.0,148.0,1.1,2.8,113.4,0.55,19.6,24.6,"10:42:24",1
"19/06/26","11:00",0.0,28.2,58.7,1009.7,148.3,0.8,2.8,179.4,0.56,19.4,24.7,"10:56:00",1
"19/06/26","11:10",0.0,28.5,55.6,1009.7,138.8,1.6,4.3,149.6,0.55,18.8,25.2,"11:08:16",1
"19/06/26","11:20",0.0,28.9,55.3,1009.3,171.0,1.2,3.2,177.2,0.55,19.1,25.4,"11:11:28",1
"19/06/26","11:30",0.0,29.4,51.4,1009.5,156.4,1.5,3.9,174.4,0.59,18.4,25.8,"11:28:16",1
"19/06/26","11:40",0.0,29.8,52.7,1009.5,134.4,1.5,3.2,167.0,0.59,19.1,25.9,"11:31:04",1
"19/06/26","11:50",0.0,30.1,49.6,1009.5,131.2,1.2,3.4,207.7,0.58,18.5,26.2,"11:48:56",1
"19/06/26","12:00",0.0,29.9,50.9,1009.0,159.4,2.0,3.9,157.2,0.58,18.7,26.5,"11:50:24",1
"19/06/26","12:10",0.0,29.4,46.6,1008.6,177.7,2.0,4.2,163.1,0.40,16.8,26.4,"12:06:00",1
"19/06/26","12:20",0.0,29.1,49.8,1008.3,191.3,1.8,3.1,217.4,0.28,17.6,26.5,"12:15:20",1
"19/06/26","12:30",0.0,29.5,49.2,1008.6,197.5,1.7,4.3,230.1,0.35,17.8,26.7,"12:20:40",1
"19/06/26","12:40",0.0,30.3,47.9,1007.8,185.6,2.6,4.8,194.4,0.60,18.1,26.8,"12:31:28",1
"19/06/26","12:50",0.0,30.2,47.1,1008.1,194.7,2.0,4.5,219.7,0.54,17.7,27.0,"12:48:48",1
"19/06/26","13:00",0.0,30.3,48.8,1008.1,160.5,1.5,3.6,226.7,0.45,18.4,27.2,"12:50:08",1
"19/06/26","13:10",0.0,29.7,48.4,1008.1,131.6,1.1,3.3,148.2,0.23,17.7,27.3,"13:09:36",1
"19/06/26","13:20",0.0,30.4,47.2,1008.3,129.0,1.2,4.0,127.4,0.45,17.9,27.3,"13:10:16",1
"19/06/26","13:30",0.0,30.7,48.2,1008.1,200.7,1.0,2.4,158.2,0.34,18.5,27.3,"13:21:52",1
"19/06/26","13:40",0.0,30.3,48.9,1007.6,176.7,2.1,4.8,228.1,0.33,18.4,27.3,"13:33:28",1
"19/06/26","13:50",0.0,30.2,47.9,1007.8,123.3,1.1,2.5,155.8,0.29,18.0,27.2,"13:45:20",1
"19/06/26","14:00",0.0,29.8,48.5,1007.6,178.4,1.5,4.1,216.1,0.19,17.8,27.0,"13:54:32",1
"19/06/26","14:10",0.0,29.8,48.0,1007.1,211.0,2.0,4.0,200.7,0.16,17.7,27.2,"14:08:48",1
"19/06/26","14:20",0.0,29.7,47.7,1007.1,206.6,2.2,4.9,214.8,0.18,17.5,27.1,"14:14:32",1
"19/06/26","14:30",0.0,29.1,50.6,1006.7,177.0,1.1,2.7,147.8,0.12,17.9,26.9,"14:21:04",1
"19/06/26","14:40",0.0,29.1,50.8,1006.2,229.2,1.2,3.3,220.5,0.09,17.9,26.8,"14:32:16",1
"19/06/26","14:50",0.0,29.1,51.1,1006.2,257.6,1.1,2.5,207.7,0.11,18.0,26.6,"14:45:44",1
"19/06/26","15:00",0.0,28.8,51.0,1006.2,168.8,0.8,2.1,192.7,0.09,17.7,26.9,"14:50:56",1
"19/06/26","15:10",0.0,29.2,49.2,1006.2,185.9,1.6,3.7,224.8,0.09,17.5,26.6,"15:07:20",1
"19/06/26","15:20",0.0,29.2,49.4,1005.5,219.5,1.8,3.7,206.4,0.07,17.6,26.4,"15:13:04",1
"19/06/26","15:30",0.0,29.1,50.8,1005.7,259.4,0.7,1.6,211.2,0.09,17.9,26.5,"15:20:32",1
"19/06/26","15:40",0.0,29.3,51.6,1005.5,263.3,0.6,1.4,303.8,0.11,18.3,26.4,"15:36:16",1
"19/06/26","15:50",0.0,29.2,50.8,1005.7,229.5,1.1,3.3,223.7,0.07,18.0,26.3,"15:45:44",1
"19/06/26","16:00",0.0,29.0,51.9,1005.2,134.9,1.0,2.5,145.0,0.10,18.2,26.2,"15:51:36",1
"19/06/26","16:10",0.0,29.2,52.1,1005.2,288.6,0.5,1.7,356.9,0.10,18.4,26.2,"16:02:56",1
"19/06/26","16:20",0.0,29.1,51.1,1005.5,260.2,0.6,2.0,214.6,0.05,18.0,26.1,"16:13:36",1
"19/06/26","16:30",0.0,29.0,52.6,1005.2,289.0,0.8,2.2,225.4,0.05,18.4,26.1,"16:26:24",1
"19/06/26","16:40",0.0,28.7,53.9,1004.8,239.3,1.5,2.9,233.5,0.05,18.5,26.1,"16:37:36",1
"19/06/26","16:50",0.0,28.7,54.9,1004.5,259.6,1.0,1.9,325.9,0.07,18.8,25.8,"16:42:48",1
"19/06/26","17:00",0.0,28.1,57.1,1005.0,311.8,1.1,3.2,332.6,0.09,18.9,26.0,"16:54:24",1
"19/06/26","17:10",0.0,28.2,57.6,1004.8,313.4,1.1,3.2,351.0,0.12,19.1,26.0,"17:06:00",1
"19/06/26","17:20",0.0,28.6,56.6,1004.8,313.0,1.1,2.8,339.4,0.10,19.2,25.9,"17:17:28",1
"19/06/26","17:30",0.0,28.3,56.8,1004.8,334.7,1.6,3.7,347.5,0.07,19.0,25.9,"17:29:44",1
"19/06/26","17:40",0.0,28.1,57.2,1004.5,331.0,1.8,3.2,328.1,0.05,18.9,25.9,"17:31:28",1
"19/06/26","17:50",0.0,28.1,57.7,1004.8,324.4,1.3,3.4,337.2,0.04,19.0,25.8,"17:40:24",1
"19/06/26","18:00",0.0,28.0,58.3,1005.0,304.7,1.1,3.1,346.2,0.04,19.1,25.7,"17:59:44",1
"19/06/26","18:10",0.0,27.9,59.2,1005.0,295.6,0.7,1.9,302.0,0.03,19.2,25.7,"18:06:16",1
"19/06/26","18:20",0.0,27.5,60.9,1005.2,287.3,1.2,3.2,311.9,0.04,19.3,25.4,"18:16:16",1
"19/06/26","18:30",0.0,27.0,63.8,1005.5,317.8,1.3,3.2,339.4,0.03,19.6,25.6,"18:26:48",1
"19/06/26","18:40",0.0,26.1,67.1,1005.7,310.5,1.1,2.5,340.9,0.01,19.6,25.4,"18:31:36",1
"19/06/26","18:50",0.0,25.6,70.6,1005.7,292.9,1.0,2.2,313.4,0.01,19.9,25.1,"18:48:48",1
"19/06/26","19:00",0.0,25.2,73.1,1005.7,298.2,1.0,2.2,318.9,0.00,20.1,25.0,"18:57:36",1
"19/06/26","19:10",0.0,25.1,74.0,1006.0,323.8,1.5,2.6,331.4,0.00,20.2,25.2,"19:00:40",1
"19/06/26","19:20",0.0,24.9,74.5,1006.0,306.4,0.8,1.4,320.5,0.00,20.1,25.1,"19:16:00",1
"19/06/26","19:30",0.0,24.9,74.6,1005.7,289.1,0.6,1.7,326.3,0.00,20.1,24.8,"19:21:36",1
"19/06/26","19:40",0.0,24.9,74.9,1006.4,302.3,0.8,1.7,323.7,0.00,20.2,24.9,"19:37:28",1
"19/06/26","19:50",0.0,24.8,75.2,1006.4,319.4,0.7,1.3,313.2,0.00,20.2,24.8,"19:47:12",1
"19/06/26","20:00",0.0,24.8,76.0,1006.2,329.3,0.7,1.2,336.5,0.00,20.3,24.7,"19:56:24",1
"19/06/26","20:10",0.0,24.7,77.2,1006.2,318.7,0.7,1.0,332.8,0.00,20.5,24.5,"20:06:32",1
"19/06/26","20:20",0.0,24.5,77.4,1006.7,273.2,0.7,1.3,277.8,0.00,20.3,24.6,"20:11:52",1
"19/06/26","20:30",0.0,24.5,77.5,1006.7,284.8,0.7,1.6,324.3,0.00,20.3,24.7,"20:21:44",1
"19/06/26","20:40",0.0,24.6,77.9,1006.9,320.2,0.8,1.3,327.4,0.00,20.5,24.5,"20:30:16",1
"19/06/26","20:50",0.0,24.4,78.9,1006.7,299.7,0.3,1.0,334.5,0.00,20.5,24.3,"20:41:12",1
"19/06/26","21:00",0.0,24.4,79.8,1007.1,274.8,0.3,0.9,249.2,0.00,20.7,24.3,"20:54:08",1
"19/06/26","21:10",0.0,24.3,79.8,1007.1,230.0,0.6,1.6,234.6,0.00,20.6,24.5,"21:04:24",1
"19/06/26","21:20",0.0,24.5,78.8,1007.4,259.5,0.5,1.4,240.0,0.00,20.6,24.2,"21:10:48",1
"19/06/26","21:30",0.0,24.6,78.5,1006.9,214.4,0.3,0.9,247.3,0.00,20.7,24.3,"21:20:24",1
"19/06/26","21:40",0.0,24.6,78.1,1007.1,262.5,0.5,1.0,241.3,0.00,20.6,24.2,"21:34:48",1
"19/06/26","21:50",0.0,24.4,78.9,1007.1,303.4,0.7,1.2,314.1,0.00,20.5,24.1,"21:47:52",1
"19/06/26","22:00",0.0,24.1,80.3,1007.4,288.0,0.8,1.2,310.6,0.00,20.5,24.3,"21:52:32",1
"19/06/26","22:10",0.0,23.9,81.0,1006.9,286.7,0.6,1.3,320.0,0.00,20.5,24.1,"22:00:08",1
"19/06/26","22:20",0.0,23.8,81.6,1007.1,269.0,0.7,1.7,260.7,0.00,20.5,23.9,"22:19:44",1
"19/06/26","22:30",0.0,23.7,82.1,1007.1,278.5,0.8,1.2,263.7,0.00,20.5,23.9,"22:20:02",1
"19/06/26","22:40",0.0,23.7,82.5,1006.7,290.0,0.8,1.8,325.2,0.00,20.6,24.0,"22:35:36",1
"19/06/26","22:50",0.0,23.6,82.7,1006.7,279.4,0.6,0.9,266.0,0.00,20.5,24.0,"22:41:12",1
"19/06/26","23:00",0.0,23.6,82.9,1006.9,278.8,0.7,1.2,269.6,0.00,20.6,23.9,"22:56:40",1
"19/06/26","23:10",0.0,23.6,83.2,1007.1,285.9,0.7,1.1,295.0,0.00,20.6,23.6,"23:00:08",1
"19/06/26","23:20",0.0,23.7,83.3,1006.9,318.8,1.0,1.9,339.1,0.00,20.7,23.9,"23:14:48",1
"19/06/26","23:30",0.0,23.6,83.6,1006.7,288.6,0.7,1.0,305.5,0.00,20.7,23.9,"23:25:28",1
"19/06/26","23:40",0.0,23.6,83.7,1006.7,325.5,1.3,2.4,343.7,0.00,20.7,23.7,"23:33:52",1
"19/06/26","23:50",0.0,23.7,83.6,1006.7,325.1,1.3,2.0,316.7,0.00,20.8,23.6,"23:46:48",1
"19/06/26","24:00",0.0,23.6,83.5,1006.2,290.0,0.7,1.6,312.6,0.00,20.7,23.5,"23:58:08",1
